Regional Weather Roundup
Issued by NWS

Home | Current Version | Previous Version | Graphics & Text | Print | Product List | Glossary On
Versions: 1 2 3 4 5 6 7 8 9 10 11 12 13 14 15 16 17 18 19 20 21 22 23 24 25 26 27 28 29 30 31 32 33 34 35 36 37 38 39 40 41 42 43 44 45 46 47 48 49 50
943
ASUS43 KLOT 131903
RWRIL

ILLINOIS REGIONAL WEATHER ROUNDUP
NATIONAL WEATHER SERVICE CHICAGO/ROMEOVILLE IL
100 PM CST SAT FEB 13 2016

NOTE: "FAIR" INDICATES FEW OR NO CLOUDS BELOW 12,000 FEET WITH NO
SIGNIFICANT WEATHER AND/OR OBSTRUCTIONS TO VISIBILITY.

* THESE STATIONS ARE NOT UNDER NWS QUALITY CONTROL. THEY ALSO MAY NOT
  REPORT WEATHER SUCH AS PRECIPITATION OR FOG.

ILZ001-002-007-009-015-016-024-132000-
NORTHWEST ILLINOIS

CITY           SKY/WX    TMP DP  RH WIND       PRES   REMARKS
MOLINE         SUNNY     17  -7  34 W5        30.60F WCI  10
STERLING*      SUNNY     18  -6  35 N10       30.56F WCI   6
$$

ILZ003-004-008-010-011-017-018-132000-
NORTH CENTRAL ILLINOIS

CITY           SKY/WX    TMP DP  RH WIND       PRES   REMARKS
ROCKFORD       MOSUNNY   14  -7  38 NW10      30.59F WCI   1
FREEPORT*      SUNNY     11  -7  44 NW6       30.58F WCI   2
ROCHELLE*      SUNNY     14  -5  44 NW10      30.57F WCI   1
DE KALB*       SUNNY     13  -5  43 W6        30.55F WCI   4
$$

ILZ005-006-012>014-019>023-132000-
NORTHEAST ILLINOIS

CITY           SKY/WX    TMP DP  RH WIND       PRES   REMARKS
CHICAGO-OHARE  MOSUNNY   15  -6  39 NW10      30.55F WCI   2
CHICAGO-MIDWAY MOSUNNY   16  -8  34 NW12      30.56F WCI   3
AURORA         SUNNY     15  -5  40 NW9       30.57F WCI   3
LANSING*       SUNNY     17  -9  31 W7        30.56F WCI   7
WAUKEGAN       SUNNY     12  -5  46 VRB7      30.54F WCI   1
DUPAGE AIRPORT SUNNY     13  -5  44 NW7       30.55F WCI   3
WHEELING       SUNNY     14  -5  42 NW10      30.57F WCI   1
MORRIS*        SUNNY     16  -5  39 NW9       30.54F WCI   5
NORTHERLY ISL    N/A     15  -7  37 W8          N/A  WCI   4
$$

LMZ740>746-132000-
SOUTHERN LAKE MICHIGAN

STATION/POSITION SKY/WX   TEMP    WIND        PRES    VSBY  WAVE
                          AIR SEA DIR/SP/G                  HT/PER
                          (F)     (DEG/KT/KT) (MB)    (MI)  (FT/S)
HARRISON CRIB              12     320/  9/ 12   N/A
BURNHAM HARBOR             15     290/  7/ 12   N/A
CALUMET HARBOR             13     260/  4/ 12 1034.7F
BURNS HARBOR               11     330/  8/ 16 1035.9S
MICHIGAN CITY              12     270/ 17/ 19   N/A
$$

ILZ025>027-034>036-040-047-049-050-058-095>099-132000-
WEST-CENTRAL ILLINOIS

CITY           SKY/WX    TMP DP  RH WIND       PRES   REMARKS
QUINCY         MOSUNNY   16  -1  47 NE7       30.59F WCI   6
MACOMB*        SUNNY     17  -3  41 W3        30.62F
$$

ILZ028>032-037-038-041>044-048-051>054-059>061-132000-
CENTRAL ILLINOIS

CITY           SKY/WX    TMP DP  RH WIND       PRES   REMARKS
BLOOMINGTON    SUNNY     18  -4  37 N8        30.57F WCI   8
DECATUR        SUNNY     18  -3  39 MISG      30.59F
PEORIA         SUNNY     18  -6  34 NW5       30.60F WCI  11
LACON*         SUNNY     17  -8  33 N3        30.59F
LINCOLN*       SUNNY     19  -1  42 W3        30.60F
SPRINGFIELD    SUNNY     19  -2  39 CALM      30.61F
TAYLORVILLE    NOT AVBL
$$

ILZ033-039-045-046-055>057-062-063-132000-
EAST-CENTRAL ILLINOIS

CITY           SKY/WX    TMP DP  RH WIND       PRES   REMARKS
CHAMPAIGN      SUNNY     18  -2  41 NW8       30.57F WCI   8
MATTOON        SUNNY     17   1  49 N9        30.58F WCI   6
$$

ILZ079-100>102-132000-
SOUTHWEST ILLINOIS

CITY           SKY/WX    TMP DP  RH WIND       PRES   REMARKS
ALTON          MOSUNNY   19   0  42 N5        30.61F WCI  13
BELLEVILLE     MOSUNNY   23  -1  34 NE6       30.59F WCI  16
CAHOKIA*       SUNNY     22  -3  33 VRB7      30.61F WCI  13
SPARTA*        MOSUNNY   21   4  46 CALM      30.60F
$$

ILZ064>066-069>071-074>076-080>082-084>086-088>090-092>094-132000-
SOUTH-CENTRAL ILLINOIS

CITY           SKY/WX    TMP DP  RH WIND       PRES   REMARKS
CARBONDALE     PTSUNNY   25   2  37 N7        30.60F WCI  17
CAIRO*         SUNNY     26   7  43 NE9       30.59F WCI  17
MARION         MOSUNNY   25   1  36 N12       30.59F WCI  14
MT. VERNON     SUNNY     21   3  45 CALM      30.60F
CENTRALIA*     SUNNY     22   6  50 NE6       30.59F WCI  14
SALEM*         SUNNY     21   4  47 CALM      30.60F
$$

ILZ067-068-072-073-078-083-087-091-132000-
SOUTHEAST ILLINOIS

CITY           SKY/WX    TMP DP  RH WIND       PRES   REMARKS
LAWRENCEVILLE  SUNNY     21  -2  36 NW12      30.60F WCI   9
HARRISBURG*    SUNNY     22   7  51 N9        30.61F WCI  12
ROBINSON*      SUNNY     19  -3  37 N8        30.61F WCI   9
CARMI*         SUNNY     21   5  50 N7        30.60F WCI  12
$$

ABBREVIATIONS USED IN REMARKS
   TC - TEMPERATURE IN CELSIUS
  WCI - WIND CHILL INDEX
   HX - HEAT INDEX
  VSB - VISIBILITY
$$





USA.gov is the U.S. government's official web portal to all federal, state and local government web resources and services.